Regional Weather Roundup
Issued by NWS

Home | Current Version | Previous Version | Text Only | Print | Product List | Glossary Off
Versions: 1 2 3 4 5 6 7 8 9 10 11 12 13 14 15 16 17 18 19 20 21 22 23 24 25 26 27 28 29 30 31 32 33 34 35 36 37 38 39 40 41 42 43 44 45 46 47 48 49 50

000
ASUS43 KLMK 252102
RWRKY
KENTUCKY REGIONAL WEATHER ROUNDUP
NATIONAL WEATHER SERVICE LOUISVILLE KY
400 PM EST TUE NOV 25 2014

NOTE "FAIR" INDICATES FEW OR NO CLOUDS BELOW 12,000 FEET
WITH NO SIGNIFICANT WEATHER AND/OR OBSTRUCTIONS TO VISIBILITY.

KYZ001>023-026-027-061>063-070>075-252200-
WESTERN AND SOUTH CENTRAL KENTUCKY

CITY           SKY/WX    TMP DP  RH WIND       PRES   REMARKS
PADUCAH        SUNNY     43  25  49 SW5       30.14S
HENDERSON      PTSUNNY   39  27  60 NW7       30.16R WCI  34
OWENSBORO      MOSUNNY   41  29  62 N9        30.15F
HOPKINSVILLE   PTSUNNY   45  25  45 NW7       30.13S
BOWLING GREEN  SUNNY     47  23  38 CALM      30.13R
GLASGOW        NOT AVBL
$$

KYZ024-025-028>034-038-045-046-053-252200-
NORTH CENTRAL KENTUCKY

CITY           SKY/WX    TMP DP  RH WIND       PRES   REMARKS
LOUISVILLE/SDF PTSUNNY   45  26  47 W8        30.13R
LOUISVILLE/LOU SUNNY     45  25  45 W6        30.13R
FORT KNOX      SUNNY     43  27  53 W8        30.11R
$$

KYZ035>037-039>044-047>052-055>060-089>105-252200-
NORTHEAST KENTUCKY

CITY           SKY/WX    TMP DP  RH WIND       PRES   REMARKS
LEXINGTON      MOSUNNY   45  26  47 SW6       30.11R
COVINGTON      PTSUNNY   43  27  53 W5        30.10S
FRANKFORT      MOSUNNY   44  26  49 W5        30.11R
$$

KYZ054-064>069-076>088-106>120-252200-
SOUTHEAST KENTUCKY

CITY           SKY/WX    TMP DP  RH WIND       PRES   REMARKS
JACKSON        SUNNY     51  24  34 VRB5      30.07R
LONDON         SUNNY     52  24  33 W8        30.08S
SOMERSET       NOT AVBL
MIDDLESBORO    NOT AVBL
MONTICELLO     PTCLDY    52  31  44 W5        30.12S
$$



USA.gov is the U.S. government's official web portal to all federal, state and local government web resources and services.